Regional Weather Roundup
Issued by NWS Sioux Falls, SD

Home | Current Version | Previous Version | Text Only | Print | Product List | Glossary On
Versions: 1 2 3 4 5 6 7 8 9 10 11 12 13 14 15 16 17 18 19 20 21 22 23 24 25 26 27 28 29 30 31 32 33 34 35 36 37 38 39 40 41 42 43 44 45 46 47 48 49 50
549
ASUS43 KFSD 250602
RWRFSD

WEATHER ROUNDUP FOR SE SOUTH DAKOTA/SW MINNESOTA/NW IOWA
NATIONAL WEATHER SERVICE SIOUX FALLS SD
100 AM CDT WED MAY 25 2016

NOTE: "FAIR" INDICATES FEW OR NO CLOUDS BELOW 12,000 FEET WITH NO
SIGNIFICANT WEATHER AND OR OBSTRUCTIONS TO VISIBILITY.


SDZ038>040-050-052>070-250700-
SOUTHEAST SOUTH DAKOTA

CITY           SKY/WX    TMP DP  RH WIND       PRES   REMARKS
BROOKINGS      CLOUDY    66  58  75 SE9       29.84F
CHAMBERLAIN    NOT AVBL
HURON          CLOUDY    68  58  70 SE10      29.78F
6HR MIN TEMP:  64; 6HR MAX TEMP:  82;

MADISON        FAIR      66  66 100 SE12      29.84F
MITCHELL       CLOUDY    71  63  75 SE15      29.78F
6HR MIN TEMP:  69; 6HR MAX TEMP:  83;

SIOUX FALLS    CLOUDY    70  62  76 SE9       29.83F
6HR MIN TEMP:  70; 6HR MAX TEMP:  81;

WINNER         TSTM      60  55  83 W18       29.83R
YANKTON        CLOUDY    64  59  82 E7        29.79F
$$

MNZ071-072-080-081-089-090-097-098-250700-
SOUTHWEST MINNESOTA

CITY           SKY/WX    TMP DP  RH WIND       PRES   REMARKS
FAIRMONT       CLEAR     66  48  52 S7        29.90S
JACKSON        CLOUDY    66  59  77 S7        29.91R
LUVERNE        CLOUDY    66  59  77 SE5       29.87S
MARSHALL       CLOUDY    67  55  65 S8        29.87S
6HR MIN TEMP:  66; 6HR MAX TEMP:  85;

MONTEVIDEO     CLOUDY    64  52  63 SE6       29.88R
PIPESTONE      PTCLDY    68  61  77 S8        29.87S
REDWOOD FALLS  CLOUDY    65  56  72 SE8       29.87S
WINDOM         CLOUDY    66  61  82 CALM      29.90R
WORTHINGTON    CLOUDY    68  62  81 S9        29.90R
$$

IAZ001>003-012>014-020>022-031-032-NEZ013-014-SDZ071-250700-
NORTHWEST IOWA

CITY           SKY/WX    TMP DP  RH WIND       PRES   REMARKS
DENISON        CLOUDY    68  63  83 S12       29.87F
ESTHERVILLE    CLOUDY    61  58  90 SE8       29.90R
SIOUX CITY     CLOUDY    68  61  78 SE9       29.84R
6HR MIN TEMP:  66; 6HR MAX TEMP:  81;

SPENCER        CLOUDY    65  60  84 SE3       29.90R
6HR MIN TEMP:  64; 6HR MAX TEMP:  82;

STORM LAKE     CLOUDY    66  63  88 S9        29.91R
$$

ABBREVIATIONS USED IN REMARKS
   TC - TEMPERATURE IN CELSIUS
  WCI - WIND CHILL INDEX
   HX - HEAT INDEX
  VSB - VISIBILITY





USA.gov is the U.S. government's official web portal to all federal, state and local government web resources and services.